Regional Weather Roundup
Issued by NWS

Home | Current Version | Previous Version | Graphics & Text | Print | Product List | Glossary On
Versions: 1 2 3 4 5 6 7 8 9 10 11 12 13 14 15 16 17 18 19 20 21 22 23 24 25 26 27 28 29 30 31 32 33 34 35 36 37 38 39 40 41 42 43 44 45 46 47 48 49 50
000
ASUS43 KFSD 271210
RWRSD

WEATHER ROUNDUP FOR SOUTH DAKOTA
NATIONAL WEATHER SERVICE SIOUX FALLS SD
600 AM CST TUE JAN 27 2015

NOTE: "FAIR" INDICATES FEW OR NO CLOUDS BELOW 12,000 FEET WITH NO
SIGNIFICANT WEATHER AND/OR OBSTRUCTIONS TO VISIBILITY.


SDZ001>005-009-010-012>017-271300-
NORTHWEST AND NORTH CENTRAL SOUTH DAKOTA

CITY           SKY/WX    TMP DP  RH WIND       PRES   REMARKS
BUFFALO          N/A     41  29  62 W9        29.85S
FAITH            N/A     34  27  75 S8        29.90F WCI  27
MOBRIDGE       PTCLDY    33  29  85 SE8       29.91S WCI  26
$$

SDZ012>016-024>037-041>051-057-063-072>074-271300-
SOUTHWEST AND SOUTH CENTRAL SOUTH DAKOTA

CITY           SKY/WX    TMP DP  RH WIND       PRES   REMARKS
RAPID CTY ARPT PTCLDY    41  25  53 W9        29.94S
PIERRE         PTCLDY    29  26  89 SE6       29.93F WCI  23
CUSTER         CLEAR     47  23  38 W8        30.06S
ELLSWORTH AFB  PTCLDY    39  26  60 W6        29.93F
PHILIP         MOCLDY    29  25  85 W3        29.93S
PINE RIDGE     CLEAR     39  27  62 SW9       30.01S
SPEARFISH      FAIR      50  25  37 NW5       29.97S
WINNER         FAIR      41  31  67 S3        29.95S
$$

SDZ004>011-016>023-039-040-271300-
NORTHEAST SOUTH DAKOTA

CITY           SKY/WX    TMP DP  RH WIND       PRES   REMARKS
ABERDEEN       CLEAR     26  24  92 SE3       30.02S
WATERTOWN      PTCLDY    27  25  92 SE3       30.03R
SISSETON         N/A     28  28 100 S7        30.05R WCI  21
$$

SDZ017-020-022-023-036>040-048>070-271300-
SOUTHEAST SOUTH DAKOTA

CITY           SKY/WX    TMP DP  RH WIND       PRES   REMARKS
SIOUX FALLS    PTCLDY    26  24  92 CALM      30.05S FOG
HURON          CLEAR     28  26  92 SE6       30.02S WCI  22
CHAMBERLAIN    CLEAR     32  30  91 SE8       29.97S WCI  25
MITCHELL       CLEAR     28  26  92 SE6       30.03F WCI  22
YANKTON        CLEAR     27  25  93 CALM      30.07S
$$

ABBREVIATIONS USED IN REMARKS
   TC - TEMPERATURE IN CELSIUS
  WCI - WIND CHILL INDEX
   HX - HEAT INDEX
  VSB - VISIBILITY



USA.gov is the U.S. government's official web portal to all federal, state and local government web resources and services.